Theta_e
316 314 313 313 314 313 313 313 314 314 313 313 313 312 312 312 312 312 312 312 312 312 312 312 312 312 312 311 311 310 309 308 308 308 307 307 307 307 308 308 308 309 310 310 309 309 309 309 309 309 310 310 310 310 310 309 309 309 309 310 312 313 312 311 311 310 310 310 310 310 310 310 311 311 312 312 312 311 311 311 311 310 310 310 310 309
314 313 312 312 313 313 313 312 312 313 312 312 311 311 311 311 311 311 311 311 311 311 311 311 311 311 310 309 308 308 307 307 307 307 307 307 307 307 307 308 308 309 310 310 310 309 309 309 310 310 310 310 310 309 309 309 309 309 309 310 311 311 311 310 310 310 309 309 309 309 309 309 310 310 310 311 311 311 311 311 311 310 310 310 309 309
312 312 311 312 312 312 312 311 311 311 311 311 310 310 310 310 310 310 311 311 311 311 310 310 309 309 308 307 307 306 306 306 306 307 307 307 307 307 307 308 308 309 310 310 310 309 309 310 310 310 310 309 309 309 308 309 309 309 309 309 310 310 310 310 309 309 308 308 308 308 308 308 308 308 309 309 309 309 310 310 310 309 309 309 309 309
311 311 311 311 311 311 311 310 310 309 309 309 309 309 309 309 310 310 310 310 310 309 308 308 307 307 306 306 306 306 306 306 306 306 306 306 307 307 307 308 308 308 309 310 309 308 309 309 310 310 309 309 308 308 308 308 308 308 308 308 309 309 309 309 308 308 307 308 308 308 308 308 308 308 307 307 307 307 308 308 308 308 308 309 309 309
310 310 311 311 310 310 310 309 309 308 308 308 308 308 308 309 309 309 309 308 308 307 307 306 306 306 306 306 306 306 306 306 305 305 305 306 306 307 307 308 307 307 308 309 308 308 309 310 310 309 309 309 308 308 308 308 308 307 307 307 307 307 307 307 307 306 307 307 307 308 308 308 308 307 307 307 306 307 307 307 307 308 308 308 309 309
309 310 310 310 310 309 308 308 308 308 308 308 308 308 308 308 308 307 307 307 306 306 305 305 305 305 305 305 305 305 305 305 305 305 305 305 306 306 307 308 307 306 307 308 308 308 309 310 309 309 308 308 308 308 308 308 308 307 306 306 306 306 306 306 306 306 307 307 307 308 308 308 308 307 307 306 306 306 306 306 307 307 308 308 308 308
308 309 310 310 309 309 308 307 307 308 308 308 307 307 307 307 306 306 306 305 305 305 305 305 305 305 305 305 305 305 305 305 305 305 305 305 306 306 307 308 307 306 306 308 308 309 310 309 309 308 308 308 308 308 308 308 308 307 307 306 305 305 305 305 305 306 307 307 308 308 308 308 307 307 306 305 305 305 305 305 306 307 307 307 307 307
307 308 309 309 309 308 307 307 307 308 308 308 307 306 306 305 305 305 305 305 304 304 304 304 305 305 305 305 305 305 305 305 305 305 305 306 306 307 307 308 308 307 306 307 308 309 310 309 308 308 308 308 308 308 308 308 308 308 307 306 305 305 305 305 304 305 306 307 308 308 308 307 307 306 305 304 304 304 304 304 305 306 306 307 306 306
308 307 308 308 308 307 306 306 306 307 307 307 307 307 306 305 305 304 304 304 304 304 304 304 304 304 305 305 305 305 305 305 305 305 306 306 307 307 307 308 308 308 307 308 309 309 310 309 308 308 308 308 308 308 308 308 308 308 307 306 305 304 304 304 303 304 305 307 307 307 307 306 306 305 304 304 303 303 303 304 304 304 304 305 304 304
308 308 308 308 307 307 306 306 306 306 306 306 306 306 306 305 304 304 304 304 304 304 304 304 304 304 304 304 304 305 305 305 305 306 306 306 307 307 308 308 309 309 308 309 309 310 310 309 308 308 307 307 308 308 308 308 308 308 307 306 305 304 303 303 303 303 304 305 306 306 306 306 305 304 304 303 303 303 303 303 303 303 303 303 303 302
308 307 307 307 307 307 306 306 305 305 305 305 305 305 305 305 305 304 304 304 304 304 304 304 304 304 304 304 304 304 305 305 305 305 305 306 307 308 308 309 309 309 309 309 310 310 310 309 309 308 307 307 307 308 308 308 308 307 307 306 305 304 303 303 302 302 303 304 304 305 305 305 305 304 304 303 303 303 303 303 303 303 303 303 302 302
307 307 307 307 306 306 306 305 305 304 304 304 304 304 304 304 304 304 305 305 304 304 304 304 304 304 304 304 304 304 305 305 305 305 306 306 307 308 308 309 309 309 309 310 310 310 310 310 309 308 307 307 307 307 307 307 307 306 306 305 304 304 303 303 303 302 302 302 303 304 305 304 304 304 304 303 303 303 302 303 303 303 302 302 302 301
306 306 306 306 306 305 305 304 304 303 303 303 303 303 303 303 303 304 304 304 304 304 304 303 303 303 303 303 304 304 305 305 305 305 306 306 307 308 308 309 309 309 309 309 309 309 309 309 309 308 307 307 307 307 307 307 306 306 305 304 304 303 303 302 302 302 302 302 303 304 304 304 304 303 303 303 303 302 302 302 302 302 302 301 301 301
305 305 305 305 305 305 305 304 303 303 303 303 304 304 304 303 303 303 304 304 303 304 303 303 303 303 303 303 303 304 304 305 305 305 305 306 306 307 308 308 309 309 309 309 309 308 308 309 308 308 307 307 307 307 307 306 306 305 305 304 303 303 302 302 301 301 301 302 303 303 303 303 302 302 302 302 302 302 302 302 301 301 301 301 300 300
304 304 304 304 304 304 304 304 304 303 303 304 304 304 304 303 303 303 303 303 303 303 303 302 302 302 302 302 303 303 304 304 304 304 305 305 306 306 307 308 308 309 309 309 308 308 308 308 308 307 307 307 306 306 306 306 305 305 304 303 303 302 302 301 301 300 300 301 301 301 301 301 301 301 301 301 301 301 301 301 301 300 300 300 300 300
304 304 304 304 303 304 304 304 304 304 304 304 304 303 303 302 302 303 303 303 302 302 302 302 301 301 301 301 302 303 303 303 303 303 304 304 305 305 306 307 308 309 308 308 308 307 307 307 307 306 306 306 305 305 305 305 304 304 303 303 302 301 301 301 300 300 300 300 299 299 299 300 300 301 301 300 300 300 300 300 300 300 300 299 299 299
305 305 305 304 303 303 304 304 304 304 304 303 303 303 302 302 302 302 303 302 302 302 302 302 302 301 300 300 301 302 303 303 303 302 303 303 303 304 305 306 307 307 307 307 307 307 306 306 305 305 305 304 304 305 305 304 304 303 302 302 301 301 301 300 300 300 300 299 299 299 299 299 300 300 299 299 299 299 299 299 299 299 298 298 297 296
305 305 305 304 303 303 303 304 304 304 303 303 302 302 302 302 302 302 302 302 302 302 302 301 302 302 301 300 300 301 302 302 302 302 303 303 303 304 304 305 305 306 306 306 306 306 305 305 305 304 304 304 304 304 304 303 303 302 302 301 301 301 300 300 300 299 299 299 299 299 299 299 298 298 298 298 298 298 298 298 298 297 297 296 295 294
304 304 304 303 303 303 303 303 303 303 303 302 302 302 301 301 302 302 301 301 302 302 302 301 300 301 301 300 300 301 301 301 301 302 302 303 303 303 304 304 304 305 305 306 305 305 305 305 304 304 303 303 304 304 303 303 302 302 301 301 301 300 300 300 299 299 299 299 298 298 298 298 297 297 297 297 297 297 297 297 297 296 296 296 295 294
304 304 304 303 303 302 302 302 303 303 303 302 302 302 301 301 301 301 301 301 301 301 301 302 301 300 300 300 300 300 301 301 301 301 301 302 302 303 303 303 304 304 304 304 304 304 304 304 304 303 303 303 303 303 303 302 302 301 301 301 300 300 300 299 299 299 299 298 298 298 298 298 297 297 297 297 297 297 296 296 296 296 296 296 295 295
304 304 304 304 303 302 302 302 303 303 303 302 302 302 301 301 300 300 300 301 301 301 301 301 301 300 300 300 300 300 300 300 300 300 300 301 301 302 302 303 303 303 303 303 303 303 303 303 303 303 303 303 303 302 302 302 301 301 301 300 300 300 299 299 299 299 298 298 298 298 298 298 297 297 297 297 297 296 296 296 296 296 296 295 295 295
305 304 304 304 304 304 303 303 303 302 302 302 302 302 302 301 301 301 301 301 301 301 301 300 300 300 300 300 299 299 300 300 300 300 300 300 300 300 301 302 302 303 303 302 302 302 302 302 302 302 302 302 302 302 301 301 301 300 300 300 300 299 299 299 299 298 298 298 298 298 298 298 297 297 297 297 297 296 296 296 296 296 295 295 295 295
306 306 304 304 304 304 304 303 303 302 302 302 302 302 302 302 302 302 301 301 301 301 300 300 300 300 299 299 299 299 299 299 299 299 300 300 299 299 300 301 301 302 302 302 302 301 301 301 301 301 301 301 301 301 301 301 300 300 300 300 299 299 299 299 298 298 298 298 298 298 298 298 298 297 297 297 296 296 296 296 296 296 295 295 295 295
305 305 304 303 303 303 303 303 302 301 301 301 301 301 301 301 301 301 301 300 300 300 300 299 299 298 298 298 298 298 298 298 298 298 299 299 299 298 299 299 300 301 301 301 301 301 301 301 301 301 301 301 300 300 300 300 300 300 300 300 299 299 299 299 299 299 299 299 298 298 298 298 298 298 297 297 297 297 296 296 296 296 295 295 295 295
303 303 303 302 302 301 302 302 301 301 301 301 300 300 300 300 300 299 299 299 299 299 299 298 298 297 297 297 297 297 297 297 298 298 298 299 299 298 298 298 299 299 300 300 300 300 300 300 300 300 300 300 300 300 300 300 300 300 300 300 299 299 299 299 299 299 299 299 299 298 298 298 298 298 298 298 297 297 297 296 296 296 296 295 295 295
302 302 302 302 301 301 301 301 301 301 301 300 300 300 300 300 300 299 299 299 298 298 298 297 296 296 296 296 296 296 296 296 297 297 298 298 298 297 297 298 298 299 299 299 299 299 299 299 299 299 299 299 299 299 299 299 299 299 299 299 299 299 299 299 299 299 299 299 299 299 298 298 298 298 298 298 298 297 297 297 297 296 296 296 295 295
302 302 301 301 301 301 300 300 300 300 300 299 299 299 300 300 300 299 298 298 298 298 297 296 296 296 296 296 296 296 296 296 296 296 297 297 297 297 297 297 297 298 298 298 298 298 298 298 299 299 299 299 299 299 299 299 299 299 299 299 299 299 299 298 298 298 298 298 298 298 298 298 298 298 298 298 298 297 297 297 297 296 296 296 295 295
301 301 300 300 300 300 300 299 299 299 298 298 298 298 298 299 299 298 298 298 298 297 297 296 296 297 296 295 295 295 295 295 295 295 295 296 297 297 296 296 296 297 297 297 297 297 297 298 298 298 298 298 298 298 298 298 298 298 298 298 298 298 298 298 298 298 298 298 298 298 298 298 298 298 298 298 298 298 297 297 297 297 296 296 295 295
299 298 298 298 298 298 298 297 297 297 297 297 297 297 297 298 298 298 299 298 297 297 296 296 296 296 295 294 294 294 294 294 294 294 294 295 295 295 295 295 295 295 296 296 296 296 296 296 296 297 297 297 297 297 297 297 297 297 297 297 297 297 297 297 298 297 297 297 297 297 297 297 297 297 297 297 297 297 297 297 297 297 296 296 295 295
296 296 296 296 296 296 296 295 295 295 295 295 295 296 296 296 296 297 297 297 297 296 295 295 296 295 294 293 293 293 293 293 294 293 293 294 294 294 294 294 294 294 294 294 294 294 294 294 294 294 294 294 294 294 295 295 295 295 295 295 295 295 295 295 296 296 296 296 296 296 296 296 296 296 297 297 297 297 297 297 297 296 296 296 295 295
296 296 296 295 295 295 295 295 294 294 294 294 294 294 294 294 294 294 295 295 295 295 295 295 295 295 295 294 293 291 291 292 293 292 293 293 293 293 292 292 292 292 292 293 294 293 291 292 292 292 292 292 292 292 292 292 292 292 292 292 292 292 292 293 293 293 293 293 294 294 294 294 295 295 295 295 296 296 296 296 296 296 296 295 295 294
296 295 295 295 294 293 293 293 293 292 292 292 292 292 292 293 293 293 293 293 293 293 294 294 294 294 294 294 293 291 291 291 291 291 292 292 292 291 291 291 291 291 291 292 293 293 289 291 291 291 291 291 291 291 290 290 290 290 289 290 290 290 290 290 291 291 291 291 291 291 292 292 292 292 293 293 294 294 295 295 296 296 295 295 295 294
294 294 294 293 292 292 291 291 290 290 290 290 290 291 291 292 292 292 291 291 291 291 292 293 293 293 293 293 292 292 291 291 291 291 291 291 291 290 290 291 290 290 290 290 291 291 290 291 292 291 291 290 290 290 289 288 288 288 288 288 288 288 289 289 289 289 289 289 289 290 290 290 290 290 291 291 292 292 293 294 295 295 295 295 294 294
293 292 292 291 291 290 289 289 289 289 289 290 290 290 290 290 290 290 290 290 290 290 290 291 291 292 292 291 291 291 291 291 291 291 291 290 290 290 289 290 290 289 289 289 289 290 290 290 290 290 290 289 289 288 287 287 287 287 287 287 287 287 287 287 288 288 288 288 288 288 288 288 288 289 289 289 289 290 291 292 293 293 293 293 293 293
291 291 290 290 289 289 289 289 289 289 289 289 289 289 289 289 289 288 288 288 288 288 289 289 289 290 290 290 290 290 290 290 290 289 289 289 289 288 288 288 288 288 288 288 288 288 288 288 288 288 288 288 287 287 287 286 286 286 286 286 286 286 286 286 286 286 287 287 287 287 287 287 287 287 287 287 288 288 288 289 290 291 291 291 291 292
290 290 289 289 289 288 288 288 288 288 288 288 288 288 287 287 287 287 286 286 286 286 286 287 287 287 288 288 289 289 289 289 288 288 287 287 287 287 287 287 287 287 287 287 287 287 287 287 287 287 286 286 286 286 286 286 286 286 285 285 285 285 285 285 285 285 285 285 285 286 286 286 286 286 286 286 286 287 287 287 288 288 289 289 289 289
289 289 289 288 288 288 288 288 288 288 288 287 287 286 286 286 286 286 286 285 285 285 285 285 285 285 285 286 286 286 286 286 286 286 285 285 285 285 285 285 285 285 285 285 285 286 286 286 286 285 285 285 285 285 285 285 285 285 284 284 284 284 284 283 283 284 284 284 284 284 284 284 285 285 285 285 286 286 286 286 286 287 287 288 288 288
289 289 288 288 288 288 288 288 287 287 287 287 286 286 286 286 286 286 286 286 286 286 286 286 286 286 286 286 285 285 285 285 285 285 285 285 284 284 285 285 285 285 284 285 285 284 284 285 285 285 285 285 285 285 285 284 284 284 284 284 283 283 283 283 283 283 283 283 283 283 283 283 284 284 284 285 285 285 285 285 286 286 286 286 286 286
289 289 288 288 288 288 288 288 287 287 287 286 286 286 287 287 287 288 288 288 288 288 287 287 287 287 286 286 286 286 286 285 285 285 285 285 285 284 284 284 284 284 284 284 284 284 284 284 284 284 285 285 284 284 284 284 284 284 284 284 284 284 284 283 283 283 283 282 282 282 283 283 283 283 284 284 284 285 285 285 285 285 285 285 285 285
289 289 289 288 288 288 288 287 287 287 286 286 287 287 288 288 289 289 289 289 289 289 288 288 288 287 287 287 286 286 286 286 286 286 285 285 285 285 285 285 284 284 284 284 284 284 284 284 284 283 284 284 284 283 283 284 284 284 284 284 284 284 284 284 283 283 282 282 282 283 283 283 283 284 284 284 284 284 285 285 285 285 285 285 285 285
291 290 289 289 288 288 288 288 287 287 287 287 287 288 288 289 289 289 289 289 289 289 289 288 288 288 287 287 286 286 286 286 286 286 286 285 285 285 285 285 285 285 285 284 284 284 284 284 284 284 283 283 283 283 284 284 284 284 284 283 284 284 284 284 283 283 283 283 283 283 283 283 283 284 284 284 285 285 284 285 284 284 284 284 284 285
293 292 290 289 289 288 288 288 287 287 287 288 288 288 289 289 289 289 289 289 289 289 289 288 288 288 287 287 286 286 286 285 285 285 285 285 285 285 285 285 285 285 285 285 284 284 284 284 284 284 284 284 284 284 284 284 284 284 284 284 284 284 284 284 283 283 283 283 283 283 283 283 283 283 284 284 284 284 284 284 284 284 284 284 284 284
294 293 291 290 289 289 288 288 288 287 288 288 288 288 289 289 289 289 289 289 289 289 288 288 288 287 287 286 286 286 285 285 285 285 285 285 285 285 285 285 285 285 285 285 285 284 284 284 284 284 284 284 284 284 284 284 285 284 284 283 283 283 283 283 283 283 283 283 283 283 282 282 282 283 283 283 283 283 283 284 284 284 284 284 284 284
294 294 292 291 289 289 289 288 288 288 288 288 288 288 288 289 289 289 289 289 289 288 288 288 287 287 286 286 286 285 285 285 285 285 285 285 285 285 285 285 285 285 285 285 285 285 285 285 285 284 284 284 284 284 284 285 285 284 284 283 283 282 282 282 282 282 282 282 282 282 282 282 282 282 282 282 282 283 283 283 283 283 283 284 284 284
295 294 293 291 290 289 289 289 289 288 288 288 288 288 288 288 288 288 288 289 288 288 288 287 287 286 285 285 285 284 284 284 284 284 284 284 284 284 285 285 285 285 285 285 285 285 285 285 285 285 284 284 284 284 284 285 284 284 283 283 282 282 282 281 281 281 281 281 281 281 281 281 282 282 282 282 282 282 282 282 282 283 283 283 284 284
295 294 293 292 290 290 289 289 289 289 289 289 289 289 289 288 288 288 288 288 288 288 287 287 286 285 284 284 283 283 283 283 283 283 283 283 284 284 284 284 285 285 285 285 285 285 285 285 285 285 284 284 284 285 285 284 284 284 283 282 282 282 281 281 281 281 281 281 281 281 281 281 282 282 282 282 282 282 282 282 282 282 283 283 283 284
295 294 294 292 291 290 289 289 289 289 289 289 289 289 289 289 289 288 288 288 288 288 287 286 285 285 284 283 282 282 282 282 283 283 283 283 283 283 284 284 284 284 284 284 284 284 284 285 285 285 285 285 285 285 285 284 283 283 282 282 282 282 282 282 282 282 282 282 282 282 281 282 282 282 282 282 282 282 282 282 282 282 282 282 283 283
295 294 294 292 291 290 290 290 290 290 290 290 290 289 289 289 289 289 288 288 288 288 287 286 285 284 284 283 283 283 283 283 283 283 282 283 283 283 283 283 284 284 284 284 284 284 284 284 284 284 284 284 285 285 284 284 283 282 282 282 282 282 282 282 282 282 282 282 282 282 282 282 282 282 282 282 282 282 282 282 282 282 282 282 282 283
295 295 294 293 292 291 290 290 290 290 290 290 290 290 289 289 289 289 289 288 288 288 287 286 285 284 284 284 284 284 284 283 283 282 282 283 283 283 283 283 283 283 283 283 283 284 284 284 284 284 284 284 284 284 283 283 282 282 282 282 282 282 282 282 282 282 282 282 282 282 282 282 282 282 282 282 282 282 282 282 282 282 282 282 282 283
295 295 294 293 292 291 291 290 290 290 290 290 290 290 289 289 289 289 288 288 288 288 287 286 285 285 284 284 284 284 284 284 283 283 283 283 283 283 283 283 283 283 283 283 283 284 284 284 284 284 284 283 283 283 283 282 282 282 282 282 282 282 282 282 282 283 283 283 283 283 282 282 282 282 282 282 282 282 282 282 282 282 282 282 282 282
294 295 294 294 293 292 291 291 290 290 290 290 290 290 290 289 288 288 288 288 288 287 287 286 286 285 284 284 284 284 284 284 284 283 283 283 283 283 283 283 283 283 283 283 284 284 284 284 283 283 283 283 283 283 282 282 282 282 282 282 282 282 282 282 282 283 283 283 283 283 283 282 282 282 282 282 282 282 282 283 282 282 282 282 282 282
Wind_Speed
18 20 21 21 21 20 18 17 16 16 15 15 13 12 12 11 10 9 9 8 7 7 8 9 10 11 12 13 14 14 14 14 14 14 13 13 12 12 11 10 7 5 5 6 6 6 5 4 5 5 6 6 5 5 4 3 3 2 2 1 3 6 7 6 6 7 8 8 8 9 12 16 19 20 20 20 19 18 17 17 16 14 12 11 10 9
19 22 22 22 21 20 19 17 16 15 14 13 12 11 9 8 8 7 7 6 6 7 8 9 10 11 12 12 13 12 12 12 11 11 11 11 11 11 10 9 7 6 6 7 7 6 4 4 5 6 6 5 4 4 3 2 3 3 3 3 2 2 3 3 3 5 6 7 7 7 7 8 11 14 16 17 17 16 15 14 13 12 11 9 8 7
23 24 23 23 22 21 19 18 16 15 13 12 11 9 8 7 6 6 5 6 7 8 9 10 10 11 11 11 10 10 9 9 9 9 9 10 10 10 11 9 8 7 8 8 8 6 4 5 5 6 5 4 3 3 3 3 4 4 4 5 4 4 3 4 4 4 5 6 7 7 6 6 6 6 8 10 11 11 11 10 10 9 8 7 6 6
26 26 26 24 22 21 20 18 16 14 12 11 10 8 7 6 5 5 5 6 6 7 8 9 9 8 8 8 8 8 8 7 7 8 8 9 9 10 11 10 9 8 9 9 8 6 5 5 5 5 4 4 3 3 4 4 4 3 3 4 4 5 5 5 5 4 4 5 6 6 7 6 6 5 5 5 6 7 7 6 6 6 6 6 6 5
26 27 27 26 23 20 20 18 16 14 12 10 8 7 6 5 5 4 5 5 6 6 6 7 6 6 7 7 7 7 7 7 7 7 8 8 9 10 11 10 9 9 9 9 8 7 6 6 5 5 4 4 4 4 4 4 3 2 2 2 3 4 4 4 4 4 4 4 5 5 5 5 5 5 5 6 6 6 6 5 4 4 4 5 5 6
25 27 28 25 23 21 20 18 16 14 13 10 8 7 6 5 4 3 3 4 4 4 4 5 5 5 6 6 6 6 6 7 7 7 7 8 8 9 11 11 10 10 10 9 8 8 7 7 6 5 5 5 4 4 4 3 2 2 1 2 2 3 3 3 2 3 3 4 4 3 3 3 3 4 5 5 6 6 5 5 3 2 4 5 6 6
25 27 28 25 24 22 21 18 16 15 13 12 10 8 6 5 4 3 3 2 2 3 3 4 5 6 6 6 6 6 6 7 7 6 6 7 7 9 10 11 11 10 10 9 9 9 9 8 6 5 5 5 5 5 4 4 3 2 2 2 2 2 2 1 2 2 3 3 2 1 1 1 2 3 4 5 6 6 5 4 2 2 4 5 6 6
24 26 26 25 24 23 22 19 17 15 14 13 11 10 8 6 5 5 4 3 3 2 2 3 5 6 6 6 6 6 7 7 6 6 5 5 6 8 10 11 11 11 11 10 10 11 10 8 7 6 5 6 6 5 5 5 4 4 3 2 2 2 1 1 2 2 2 1 0 1 2 2 2 2 3 5 6 5 4 4 2 1 3 3 4 4
23 24 25 24 24 23 22 21 18 16 14 13 12 11 10 9 8 7 6 5 4 3 2 2 3 5 6 6 6 7 7 6 6 5 5 5 5 7 9 11 12 12 11 11 12 13 12 9 7 6 6 6 6 6 5 5 5 5 4 2 2 1 1 1 2 2 2 1 1 1 2 2 2 2 3 4 5 4 3 2 2 2 2 2 1 1
24 24 24 24 24 24 22 22 20 17 15 13 12 11 10 10 9 8 7 7 5 3 2 1 2 3 5 7 8 8 8 6 5 4 4 5 5 6 8 10 12 12 12 12 14 15 14 11 8 7 6 6 6 5 5 5 5 5 4 2 1 0 1 1 2 3 3 2 1 2 2 2 1 1 2 3 3 2 1 1 2 2 2 1 0 1
22 23 23 22 23 24 23 23 21 19 16 15 13 11 10 10 10 9 8 7 5 3 2 1 1 2 4 6 8 9 8 7 5 5 4 5 5 5 7 10 12 12 12 13 16 17 16 13 10 8 6 5 5 5 5 5 5 4 4 2 1 1 2 2 2 3 3 2 2 2 3 2 1 1 1 2 2 1 0 1 2 2 2 1 1 1
19 20 20 20 21 21 20 21 21 19 17 15 12 11 12 12 11 9 9 7 5 4 4 3 3 3 5 6 7 8 7 6 5 5 4 4 4 4 6 8 10 11 11 13 16 18 17 14 11 8 6 5 5 4 4 5 4 4 4 3 2 2 2 1 2 2 3 2 2 3 3 3 3 3 2 2 1 1 1 1 2 2 2 2 3 4
18 19 18 19 19 19 19 19 18 17 16 15 13 12 13 13 12 10 9 8 6 6 5 4 4 4 5 6 7 6 6 6 5 5 4 4 3 3 5 6 8 9 10 13 16 17 17 14 11 9 7 5 5 5 5 4 4 4 4 3 2 2 1 1 1 2 2 2 2 3 4 4 4 5 5 4 3 3 2 3 3 4 4 5 6 7
16 16 16 15 16 18 19 19 18 16 16 16 15 14 14 13 12 11 10 9 8 7 7 5 4 4 4 5 5 5 5 5 5 5 5 4 2 2 3 5 7 9 12 15 17 17 15 13 11 9 7 6 5 5 5 5 5 5 4 4 3 2 2 1 2 2 2 3 4 4 4 5 5 5 6 6 5 5 5 5 5 6 7 8 9 9
17 16 13 12 13 16 18 19 19 18 17 16 15 14 13 12 12 12 12 11 9 8 7 5 5 5 4 3 3 4 4 4 4 4 5 4 3 2 3 6 9 12 15 17 18 17 14 12 11 9 8 8 7 6 5 5 5 5 5 4 3 3 2 2 2 3 4 4 5 5 5 5 6 6 6 7 7 7 7 7 8 8 9 9 10 10
18 17 14 13 13 16 18 20 19 19 18 17 16 14 13 13 12 12 12 12 10 9 8 7 7 6 4 4 3 3 3 3 4 4 5 5 4 4 5 9 13 17 18 19 18 16 14 12 10 9 9 9 8 7 6 6 6 6 5 4 3 3 2 2 2 2 3 4 5 5 5 6 7 7 7 7 7 7 7 8 8 8 9 9 9 9
19 18 16 15 15 16 20 21 21 20 19 18 16 15 14 13 12 12 12 12 11 10 8 8 7 5 4 4 4 3 3 4 4 6 6 6 6 7 7 11 16 19 20 20 18 16 14 11 10 9 9 9 8 7 7 7 7 6 5 4 3 3 2 2 1 1 2 3 3 4 5 6 7 7 7 7 7 7 7 7 7 7 7 8 8 8
19 18 17 15 16 18 21 22 22 21 20 19 18 16 14 12 11 11 11 11 10 9 8 7 6 5 5 4 4 4 5 5 5 7 7 7 7 8 9 11 14 17 19 18 17 15 13 11 10 9 9 8 8 7 7 7 7 6 5 5 4 3 2 2 1 2 2 3 3 4 4 5 5 6 6 5 5 5 5 6 6 6 5 5 5 5
18 19 18 16 17 20 22 23 23 23 22 20 19 16 14 12 11 10 9 9 9 9 8 7 6 5 5 5 5 6 6 6 6 6 7 8 8 8 10 10 11 13 15 15 14 13 12 11 10 9 9 8 8 7 7 7 7 6 6 5 4 3 3 2 2 2 3 3 3 3 4 4 4 4 5 5 5 5 4 4 4 4 4 4 5 5
19 19 19 18 19 20 22 23 24 23 22 20 19 17 15 13 11 10 9 8 8 7 7 8 8 7 6 6 6 6 6 6 6 6 7 7 7 8 9 9 10 11 12 13 12 12 11 10 10 9 9 8 8 8 8 8 7 7 6 6 5 4 3 3 3 3 3 3 3 4 4 4 4 5 5 5 5 5 5 5 5 5 5 5 6 6
21 21 23 23 22 22 22 24 24 22 20 19 18 17 16 14 13 11 10 9 8 7 7 8 8 7 7 7 6 6 6 6 6 5 6 6 7 8 9 9 10 10 11 11 11 11 10 10 9 9 9 9 9 9 8 8 8 7 6 6 5 4 4 4 3 3 4 4 5 5 5 6 6 6 6 7 7 7 6 6 6 6 6 7 7 7
22 23 24 23 22 22 22 23 22 19 18 17 17 17 16 15 14 12 11 9 9 8 9 8 8 8 8 7 6 6 6 6 6 5 5 5 5 6 8 9 9 10 10 11 11 11 10 10 9 9 9 9 9 9 9 8 8 7 7 6 5 5 5 4 5 5 6 6 7 7 7 7 8 8 8 8 8 8 8 8 8 8 8 8 8 8
18 20 20 20 18 18 18 18 19 18 16 15 14 13 12 11 11 11 10 9 9 9 10 9 9 8 8 7 7 6 6 6 6 6 6 5 5 5 7 8 8 9 9 10 10 11 10 10 10 9 9 9 9 9 9 9 9 8 7 7 6 6 5 6 6 7 7 8 8 8 8 8 8 9 9 9 9 9 9 9 9 9 9 10 9 9
14 16 17 17 15 14 15 17 18 17 16 14 12 10 9 8 8 8 8 8 9 9 10 9 9 8 7 7 7 6 6 6 5 5 6 6 5 5 5 6 7 8 8 9 10 10 11 11 10 10 10 10 10 10 10 10 10 9 9 8 8 8 7 7 7 7 8 8 8 8 9 9 9 9 10 10 10 10 10 10 10 11 11 11 10 10
14 15 16 15 15 14 15 16 17 16 15 14 13 12 11 10 10 9 9 9 9 9 10 10 9 8 7 7 7 6 6 6 5 5 6 5 5 5 5 5 6 6 7 8 8 9 10 10 11 11 11 11 11 11 11 11 11 11 11 10 10 10 10 10 10 10 10 9 9 9 8 9 9 9 10 10 11 11 11 11 11 11 11 11 11 11
15 15 16 16 15 15 15 15 15 15 14 13 12 12 11 11 11 10 10 10 10 11 11 11 9 8 8 7 7 7 6 6 5 5 5 5 5 5 4 4 5 6 6 6 6 7 8 9 10 11 11 12 12 12 12 12 12 12 12 12 12 12 12 12 12 12 12 12 12 11 10 10 9 9 9 10 11 11 12 12 12 12 12 12 11 11
15 16 16 16 16 15 15 15 14 13 13 12 11 11 11 11 11 11 12 12 12 12 13 11 8 6 7 6 6 6 6 6 6 5 5 5 5 4 4 4 4 5 5 4 4 5 6 7 8 10 11 12 13 14 14 14 14 14 14 14 14 14 14 14 14 14 15 15 15 14 14 13 12 12 11 10 10 11 12 12 13 13 13 13 13 12
15 15 15 15 15 15 14 14 13 13 12 12 11 10 10 10 11 13 15 14 13 13 14 12 8 6 5 5 6 6 6 6 5 5 5 5 5 4 4 4 4 3 3 3 3 4 5 6 7 9 10 12 13 13 14 14 14 14 14 14 14 15 15 15 15 16 16 16 16 16 16 16 16 15 15 14 13 12 11 12 12 13 13 13 13 13
16 15 15 14 14 14 14 13 13 12 12 12 12 11 10 9 9 11 13 12 13 14 14 13 10 7 5 6 7 7 6 6 5 5 4 5 5 4 4 3 2 2 2 1 2 2 3 4 6 7 8 9 10 10 11 11 12 12 12 12 13 13 14 14 15 15 15 16 16 16 16 17 17 17 17 17 16 14 13 11 11 11 13 13 13 13
18 17 16 15 15 14 14 13 13 12 12 12 12 11 11 9 8 8 9 10 11 13 14 14 12 9 7 7 6 5 4 5 5 5 4 4 4 4 3 2 2 1 1 2 3 3 2 2 3 4 4 4 4 4 5 5 6 6 7 8 9 10 10 11 12 12 13 14 14 15 16 16 17 17 17 18 17 16 15 13 11 10 11 12 13 12
18 18 17 16 15 14 14 13 12 12 11 11 11 11 11 10 9 8 8 8 9 10 12 13 13 11 10 6 3 2 3 5 6 5 4 4 4 4 4 3 3 2 2 3 4 4 2 3 4 4 4 4 3 3 2 1 1 2 3 5 5 6 7 8 8 9 10 11 12 13 13 14 15 15 16 16 16 16 16 14 12 11 11 11 11 12
19 18 17 16 15 14 13 12 11 11 11 11 11 10 10 10 9 9 8 7 6 6 8 10 12 12 10 6 4 3 3 6 7 6 5 4 4 5 4 4 3 3 2 3 3 3 2 4 5 5 5 4 3 2 1 1 2 3 4 5 5 6 6 7 7 8 8 9 10 10 11 12 12 13 14 14 14 15 15 15 14 13 12 12 11 11
19 18 16 15 14 13 12 11 11 11 11 11 10 10 10 10 9 9 8 7 6 5 5 7 10 11 10 7 5 5 5 7 7 6 5 4 4 4 4 3 3 2 2 2 3 3 3 3 4 5 4 3 2 2 3 4 5 5 5 5 5 6 6 7 7 7 8 8 9 10 10 11 11 12 12 12 13 13 14 14 15 15 14 13 13 12
18 17 16 15 14 13 12 12 11 11 11 11 11 11 10 10 9 9 9 8 7 7 6 6 7 8 8 8 7 6 6 7 6 5 4 3 3 3 3 3 2 2 2 2 3 3 3 3 4 4 4 3 3 4 5 5 5 5 4 4 4 5 6 6 7 7 8 8 9 9 10 11 11 12 12 12 12 13 13 14 15 15 15 15 15 14
18 17 16 15 14 13 13 12 12 12 12 12 12 11 11 10 10 9 9 8 8 8 8 7 6 6 6 6 6 6 6 6 5 3 3 2 2 2 2 2 2 2 2 3 3 3 3 4 4 4 4 3 3 4 4 4 3 4 4 4 5 6 6 7 8 8 9 9 10 10 10 11 11 12 12 12 13 13 13 13 14 15 15 16 16 16
18 17 16 15 15 14 14 13 13 13 13 13 12 12 11 11 10 10 9 9 9 8 8 8 7 7 6 5 5 6 7 5 4 3 2 1 1 1 1 2 2 2 3 3 3 3 3 3 4 4 5 4 3 3 3 3 3 3 4 5 6 7 8 9 10 10 11 11 11 11 12 12 12 12 12 13 13 13 13 14 14 15 15 15 16 16
18 17 16 16 15 15 15 15 14 14 13 13 13 12 12 11 11 11 10 10 9 9 8 8 7 7 6 5 5 6 5 4 3 2 1 1 1 1 1 2 2 2 3 3 3 3 4 3 3 4 4 4 3 3 3 4 5 5 6 7 7 8 8 9 10 10 10 10 11 11 12 12 12 12 13 13 13 13 13 13 14 14 15 15 15 15
18 17 17 16 16 16 15 15 15 14 14 14 13 13 13 12 12 11 11 10 9 9 8 8 7 7 6 5 5 5 4 3 3 2 1 1 1 1 1 2 2 2 3 4 4 4 4 3 3 3 3 3 3 4 5 6 7 8 8 7 7 7 7 7 8 8 8 8 9 9 10 11 11 12 12 12 12 12 12 12 13 13 14 14 15 15
18 17 17 17 16 16 16 15 15 15 14 14 14 14 13 13 12 12 11 10 10 9 8 7 7 6 6 5 5 4 3 3 2 2 1 1 1 1 1 2 2 2 3 3 4 4 4 3 3 2 2 2 3 4 5 7 9 10 10 9 7 6 6 6 7 7 6 6 7 7 8 9 10 10 10 11 11 10 10 10 10 11 11 12 13 13
17 17 17 17 16 16 15 15 15 15 15 15 14 14 13 13 12 11 11 10 9 8 8 7 6 6 5 4 4 3 3 2 2 2 2 2 2 2 2 2 2 3 3 3 4 4 4 4 3 3 3 3 4 5 7 8 9 10 11 10 9 8 8 7 6 6 6 7 7 7 8 8 9 9 9 9 9 9 8 8 9 9 10 10 10 10
16 16 16 16 16 16 15 15 15 15 15 15 14 14 13 12 11 11 10 9 8 8 7 7 6 5 4 4 3 2 2 2 2 2 2 2 3 3 3 3 3 3 3 3 4 4 4 4 4 4 4 4 5 7 8 8 8 9 10 10 11 11 9 7 6 6 7 8 8 9 9 10 10 9 9 9 8 8 8 8 8 8 9 9 9 9
16 16 16 16 16 16 16 16 15 15 15 14 14 13 12 11 10 10 9 8 8 7 6 6 5 4 4 3 3 2 2 2 2 2 2 3 3 3 4 4 4 4 4 4 4 4 4 4 4 4 4 5 5 6 7 8 8 8 9 11 12 11 8 6 6 8 9 10 10 10 11 11 11 11 10 10 9 9 9 9 9 9 9 8 9 9
16 16 16 16 16 17 17 17 17 16 15 15 14 13 12 11 9 8 8 7 6 6 5 5 4 3 3 3 3 3 3 3 2 2 3 3 4 4 4 5 5 5 5 4 4 4 5 5 4 4 5 5 6 7 8 8 8 8 9 10 11 10 7 7 8 10 10 10 10 10 10 10 11 11 11 11 11 11 11 10 10 10 9 9 9 8
17 16 16 16 17 17 18 18 17 17 16 15 14 13 12 10 9 8 7 6 5 4 4 3 3 2 3 4 5 4 4 3 3 3 4 4 5 5 5 6 6 6 6 5 5 5 5 5 5 5 6 6 6 7 7 8 8 8 8 8 9 8 7 8 9 10 9 9 9 9 9 9 10 10 10 11 11 11 11 11 11 10 10 10 9 9
17 16 16 17 18 18 18 18 18 17 16 15 14 13 12 10 9 8 7 6 5 4 3 2 2 3 5 6 5 5 5 4 4 4 5 5 6 6 6 6 7 7 7 7 6 6 6 5 5 6 6 7 7 7 7 7 7 7 6 6 6 5 5 6 7 8 8 8 9 9 9 10 10 10 10 10 10 10 10 10 10 10 10 10 9 9
16 17 17 18 19 19 19 19 18 18 16 15 14 13 12 11 10 8 7 5 5 4 3 1 2 3 5 5 5 5 5 4 3 3 4 5 6 6 7 7 7 7 7 7 7 7 7 6 6 6 7 7 7 7 7 7 6 5 4 4 3 3 3 4 6 7 8 9 9 10 10 10 10 10 9 9 9 8 8 8 8 9 9 9 9 9
16 17 18 19 19 20 20 19 19 18 17 16 15 14 13 12 11 9 8 6 5 4 3 1 1 2 4 4 4 3 3 2 2 1 2 3 4 5 5 6 6 7 7 7 7 7 7 7 7 7 7 7 7 7 6 6 4 3 2 1 1 3 4 5 6 7 8 9 9 10 10 10 10 10 10 10 9 8 7 6 6 7 8 8 8 9
16 17 18 19 20 20 20 20 19 19 18 17 16 15 14 13 12 11 10 8 7 5 3 2 3 4 4 4 4 4 3 2 1 1 0 1 1 2 3 3 4 5 5 6 6 6 7 7 7 8 7 7 6 6 5 4 2 1 0 1 2 3 4 5 7 7 8 9 9 10 11 11 12 12 12 12 11 9 7 5 4 4 5 6 7 7
16 17 18 20 20 21 21 20 20 19 19 18 17 16 15 14 13 12 11 10 8 6 4 4 4 5 6 6 5 5 4 3 2 1 1 1 1 1 0 1 2 2 3 4 4 5 6 7 7 7 7 6 6 4 2 1 1 1 2 3 3 3 4 6 7 8 9 10 10 10 10 11 11 12 12 12 12 11 8 6 4 2 3 4 5 5
16 17 18 20 21 21 21 21 21 20 20 19 18 17 17 16 15 14 12 10 8 7 5 5 5 6 7 7 6 5 4 3 3 2 1 2 2 2 1 1 1 1 1 2 2 3 3 4 4 4 4 4 3 1 1 2 3 3 3 3 3 4 6 8 9 10 11 11 11 11 11 10 11 11 11 12 12 11 10 7 4 3 2 3 4 5
17 17 19 20 20 21 21 21 21 21 20 20 19 18 18 17 16 15 13 11 9 7 6 5 5 6 7 7 6 6 5 4 3 3 2 0 1 2 2 2 1 1 1 1 0 0 0 0 0 0 0 0 0 1 2 3 4 4 4 3 3 5 7 9 10 11 12 12 12 12 11 10 10 10 10 11 11 12 11 9 6 4 3 3 4 5
Wind_Direction
186 183 181 181 178 174 174 178 181 183 184 187 188 191 196 201 206 211 217 226 238 251 261 268 275 281 287 291 292 293 292 291 290 287 284 279 274 269 267 264 259 248 237 235 236 237 242 250 259 267 273 279 286 290 289 284 271 253 223 140 91 88 94 83 62 43 29 18 18 31 49 65 78 90 99 105 106 107 109 112 115 115 112 107 102 98
184 181 179 180 179 176 175 178 182 185 187 189 191 195 202 208 215 223 233 246 260 273 282 287 290 292 294 294 293 292 290 289 286 283 279 274 269 264 260 255 241 221 220 226 229 228 231 244 258 266 274 280 284 280 264 240 221 211 199 186 156 100 74 52 29 19 16 9 4 2 13 38 61 77 87 93 96 97 98 101 104 105 102 98 94 90
178 177 178 180 180 178 175 176 181 185 189 189 191 196 204 216 227 239 254 270 281 288 293 295 296 296 294 293 292 290 288 286 283 280 275 270 264 259 256 248 230 213 217 223 224 219 220 240 255 265 273 277 271 250 219 198 193 195 201 209 220 240 278 301 317 336 354 5 9 7 3 6 22 47 67 77 84 88 91 92 92 91 89 85 81 79
176 175 177 178 179 179 178 177 178 182 186 187 190 196 205 218 235 251 265 283 295 298 297 297 295 294 292 292 291 289 287 285 283 280 275 268 260 256 254 246 229 214 215 219 215 209 216 237 251 260 265 262 246 218 191 180 180 189 205 223 239 254 270 290 308 326 350 10 17 18 18 18 20 28 41 53 62 66 69 70 72 72 72 73 76 76
176 175 177 176 176 177 180 179 179 180 183 185 187 193 204 216 234 256 276 290 297 297 294 293 292 291 293 294 292 289 286 284 283 281 275 267 259 254 252 245 230 216 215 213 207 204 215 232 243 248 247 238 221 199 183 177 180 194 219 250 269 277 286 304 321 340 2 16 21 23 27 30 32 37 44 51 53 54 55 55 61 75 90 96 97 94
176 176 177 176 175 175 176 177 179 181 182 183 187 191 196 209 228 251 271 284 288 287 285 286 290 296 300 299 293 286 281 280 280 280 277 269 259 252 249 243 232 220 216 209 203 204 214 225 230 230 225 214 202 193 189 192 199 212 241 279 290 294 300 317 341 4 19 21 19 17 20 25 36 44 45 44 43 45 50 55 68 118 146 143 137 125
176 177 177 177 177 176 174 175 179 182 182 181 183 188 192 199 206 215 226 243 258 269 277 288 301 308 309 302 291 279 273 273 276 280 280 273 260 249 245 242 235 225 217 207 204 208 215 217 216 213 207 200 196 197 202 212 219 229 248 278 296 304 318 346 19 32 37 31 24 20 51 77 73 54 34 21 19 26 40 52 74 162 178 170 161 150
174 176 178 178 177 175 173 174 177 182 185 184 182 183 187 189 188 186 191 202 216 233 261 294 311 317 314 302 285 273 269 270 275 282 286 280 262 246 239 239 236 229 220 209 206 211 216 211 205 201 199 197 197 201 208 218 226 234 246 273 301 330 25 57 75 79 72 60 86 157 149 136 110 54 15 4 4 13 29 41 66 165 190 186 177 166
173 175 179 180 176 172 171 174 177 181 185 188 189 186 182 182 182 182 180 182 187 201 236 291 314 316 310 296 280 270 269 271 276 284 290 287 268 246 234 232 233 231 223 213 212 215 216 208 198 194 197 198 199 204 211 221 230 237 245 266 302 358 60 101 125 128 122 133 202 196 171 147 120 66 20 7 7 14 36 65 102 140 169 189 210 251
175 176 178 180 179 176 172 173 176 178 180 186 192 194 190 183 179 179 179 180 180 184 207 261 299 299 291 282 274 268 269 272 278 285 291 290 275 249 231 225 226 227 224 219 217 217 215 206 196 191 193 194 197 204 213 224 233 238 243 255 269 142 132 157 156 151 150 168 222 243 228 183 135 74 36 21 17 25 69 134 148 149 148 152 157 337
173 176 176 177 178 178 176 174 173 173 174 180 188 194 199 193 186 181 179 175 170 163 159 171 195 222 243 253 259 261 264 269 276 284 291 292 279 252 230 220 218 220 224 224 221 217 213 205 195 188 188 187 192 200 212 223 230 233 235 240 234 202 185 193 176 162 159 176 216 241 243 236 249 357 22 17 13 16 146 185 183 177 173 183 221 302
170 174 175 176 176 176 175 173 171 170 173 177 180 185 190 193 191 185 178 168 159 150 139 145 167 193 214 229 241 248 253 259 266 275 283 288 276 247 222 213 212 216 222 222 217 213 209 202 193 184 182 183 189 199 208 217 221 224 223 223 217 203 193 199 178 154 153 174 211 236 247 259 280 304 322 334 332 279 220 220 227 237 253 268 281 290
169 171 173 173 173 173 171 168 167 170 176 180 181 181 182 184 183 179 171 164 159 155 147 142 154 183 207 222 231 237 241 247 253 258 263 272 260 225 205 201 204 209 212 207 203 201 201 197 188 180 177 181 191 200 205 211 214 214 210 205 200 194 189 186 158 139 145 184 223 241 251 268 284 296 304 311 309 292 270 260 260 267 277 287 293 297
162 165 166 167 169 171 171 170 170 174 180 187 193 194 188 181 176 170 162 158 158 159 157 148 150 168 193 213 224 227 228 235 242 247 248 253 247 208 189 188 191 196 198 192 189 190 194 191 185 178 178 185 193 199 204 209 210 206 199 192 185 180 174 167 155 156 172 203 228 246 261 275 285 292 297 301 300 295 288 283 280 282 286 292 298 302
158 160 162 166 171 173 175 176 178 182 187 193 198 198 191 181 174 166 155 149 151 155 153 150 155 165 175 189 206 213 214 223 228 230 230 228 220 198 186 186 188 189 190 186 184 186 190 190 187 184 184 187 191 195 201 206 205 199 192 184 176 168 163 164 171 184 196 209 222 237 254 268 278 283 286 288 288 287 287 286 285 286 289 293 298 302
162 164 168 173 177 180 182 185 186 187 190 193 196 195 189 180 172 164 155 151 152 154 154 153 155 160 171 181 192 198 198 202 208 212 212 206 194 185 185 185 184 184 185 184 184 185 187 188 189 189 187 185 185 189 197 201 198 192 184 177 170 162 158 163 177 195 209 218 226 236 247 260 269 274 276 279 280 282 283 283 284 286 289 292 296 299
168 171 175 179 183 186 188 192 193 191 190 189 191 192 190 183 174 165 160 158 158 159 159 154 149 149 161 168 178 187 187 180 188 200 202 196 184 179 182 182 177 176 179 181 182 182 181 182 185 186 185 182 182 187 195 196 192 187 181 177 172 167 165 169 188 214 234 242 247 251 254 262 268 274 277 280 283 285 286 287 288 290 292 295 297 299
175 178 179 182 185 188 190 191 191 190 188 185 185 186 187 184 177 170 166 165 165 163 159 154 150 147 147 157 168 175 181 172 177 189 195 194 185 178 179 180 178 175 175 176 178 180 179 180 181 181 181 181 184 190 195 195 192 189 186 185 184 184 185 197 224 251 262 266 268 269 271 275 281 287 293 296 298 298 298 297 298 301 303 305 306 307
180 183 184 186 188 188 188 187 187 186 184 182 181 180 181 181 178 175 173 171 169 165 158 153 151 148 146 143 156 170 177 173 174 181 189 192 189 182 181 182 181 179 177 176 177 180 183 185 185 182 180 183 189 195 197 198 197 196 195 196 197 199 204 216 234 254 266 275 281 285 291 298 305 312 318 321 322 321 319 318 318 321 324 327 328 328
182 187 190 190 188 186 185 186 186 186 184 183 181 179 178 178 178 177 175 171 167 163 160 158 155 154 157 158 164 173 179 178 177 178 182 184 186 188 188 188 188 185 183 180 180 183 186 187 187 186 183 187 193 198 201 203 203 204 205 206 208 212 217 227 241 256 270 282 291 299 306 313 318 323 326 330 332 334 334 335 336 337 339 340 341 340
184 190 196 196 191 185 183 185 187 187 187 185 183 180 179 177 177 176 175 170 165 162 161 157 157 163 171 168 168 175 183 181 179 179 180 179 182 188 195 196 196 193 190 187 186 186 187 188 189 190 190 193 197 202 206 209 211 213 214 216 219 224 230 239 251 267 280 289 297 303 308 311 315 318 321 325 329 332 335 337 337 338 339 339 339 339
189 193 197 199 197 192 187 185 184 184 185 185 184 183 181 179 178 177 176 172 166 160 155 152 157 168 175 174 178 184 186 184 185 187 183 171 172 185 197 200 200 199 197 195 194 192 190 189 191 194 198 200 203 207 211 215 218 221 223 228 233 240 250 262 273 283 289 294 297 300 303 305 307 309 312 316 320 324 327 328 330 332 332 333 333 333
194 194 194 196 198 197 192 184 180 179 181 184 187 187 184 183 181 179 175 170 162 157 154 157 162 168 172 176 182 186 186 187 189 193 191 168 159 173 192 198 199 199 199 200 200 199 197 195 196 199 203 207 211 214 217 221 223 226 228 231 235 241 249 263 274 281 284 287 289 290 291 293 295 297 301 305 308 312 315 318 320 323 325 326 326 327
187 187 185 187 190 191 188 181 177 175 176 178 180 179 177 176 172 167 162 159 156 155 156 158 160 162 168 175 179 181 183 185 186 189 193 181 167 164 176 185 188 191 197 203 205 205 205 205 206 208 210 214 217 221 225 228 230 232 233 234 234 234 237 242 249 255 260 264 269 274 277 279 282 284 288 291 294 297 301 305 309 313 315 317 317 318
176 178 178 178 178 179 179 177 175 174 174 176 176 175 172 169 166 162 159 158 157 157 158 156 155 158 166 174 178 179 181 184 185 187 191 181 167 161 168 174 178 182 189 202 208 210 211 214 217 219 221 223 226 229 232 234 237 239 240 241 242 241 242 243 244 245 246 247 249 254 259 264 269 272 277 280 282 284 287 292 296 300 303 304 305 306
170 173 174 173 173 172 173 173 173 173 175 177 177 177 175 173 170 166 162 162 163 162 159 156 157 162 168 171 175 178 180 183 185 187 190 180 167 165 176 181 183 183 184 196 207 213 216 221 227 230 231 233 235 236 238 240 242 244 245 247 248 248 249 249 250 250 250 250 251 251 252 254 257 260 266 270 274 276 278 281 284 287 289 290 290 292
167 169 170 170 169 169 169 169 170 172 173 176 177 179 179 178 173 167 164 168 171 169 164 159 157 162 167 169 170 173 178 181 182 185 189 185 175 171 183 195 196 192 189 195 205 214 220 227 233 237 238 239 241 241 243 244 245 247 249 250 252 252 253 253 254 254 255 256 257 258 258 258 258 258 259 262 265 268 271 273 275 276 278 278 278 280
161 163 164 164 164 165 166 167 168 169 171 172 173 176 180 184 179 173 172 176 177 175 173 167 160 154 158 165 168 170 175 178 179 182 189 189 177 171 188 205 211 205 200 203 214 222 226 231 236 239 241 243 244 245 246 248 249 250 252 253 254 255 256 256 257 257 258 259 260 260 261 262 262 262 262 262 263 264 265 267 269 269 269 268 268 271
150 152 154 156 158 159 161 163 164 166 168 170 171 173 177 184 187 185 183 182 180 178 179 175 169 154 143 154 162 166 174 180 185 188 189 189 180 178 196 206 215 215 196 191 213 224 224 230 233 236 240 244 246 247 249 251 252 254 255 256 257 257 258 259 259 260 260 261 261 261 262 262 263 263 263 263 263 262 262 262 261 262 262 262 264 267
146 147 149 151 153 155 157 158 159 162 166 168 169 170 173 176 181 186 186 185 183 183 182 179 172 159 144 140 145 158 178 188 191 190 186 182 180 180 180 169 160 147 134 133 128 121 127 182 203 209 215 224 230 234 238 244 249 253 256 258 259 260 261 262 262 262 263 263 263 263 263 263 263 264 264 263 263 261 260 257 255 255 257 260 263 266
148 150 150 150 152 154 156 157 158 160 163 165 166 167 168 167 167 169 175 179 184 186 184 177 171 164 154 142 130 141 179 184 183 181 176 169 154 140 138 126 121 121 125 132 126 117 108 133 142 148 152 149 146 143 144 161 222 255 263 267 268 268 267 266 266 266 266 267 266 266 265 265 265 265 265 264 262 260 258 255 252 250 251 255 260 264
151 151 150 149 150 151 151 152 153 154 156 158 160 161 162 161 160 160 161 164 169 176 178 173 170 168 165 155 142 142 154 163 167 169 169 154 135 130 136 127 118 119 135 151 147 141 144 138 139 142 142 140 139 141 146 273 289 287 283 279 277 275 273 272 271 271 271 271 272 271 271 270 270 270 269 267 265 261 257 253 250 249 249 251 254 258
149 148 148 147 146 146 145 145 145 147 148 150 152 154 155 155 154 153 151 149 147 148 154 163 167 168 167 158 144 136 141 149 154 162 169 153 136 134 141 139 133 133 153 181 193 191 174 161 162 166 169 183 230 276 287 292 292 290 286 279 274 272 272 272 271 271 272 274 275 275 276 275 275 275 274 273 271 266 261 255 252 251 252 253 255 257
147 147 147 147 146 146 145 145 145 145 145 146 146 147 147 147 146 145 142 140 137 133 131 139 154 164 166 158 146 136 139 147 153 160 169 160 141 135 143 150 158 168 185 200 218 225 222 219 211 208 216 231 256 278 288 290 291 291 289 282 276 273 272 271 269 268 270 272 273 275 277 277 277 277 277 277 275 272 268 262 258 256 257 259 260 262
146 146 148 149 149 149 149 148 147 146 145 143 142 141 140 139 138 136 134 133 132 131 130 132 137 147 155 157 151 146 146 150 153 158 167 161 142 139 150 165 181 196 206 211 216 220 225 236 240 242 250 255 257 262 271 276 284 291 295 293 290 287 284 281 278 275 274 274 274 275 276 277 277 278 277 277 276 275 273 269 265 262 261 262 264 265
147 148 151 153 154 153 152 151 149 147 145 142 140 137 136 134 132 130 128 127 127 127 129 132 134 137 139 141 141 141 143 145 147 150 160 169 172 164 166 183 201 213 216 219 217 212 210 227 243 255 265 270 259 241 238 252 266 278 289 294 296 295 295 293 290 286 284 283 281 280 278 278 278 278 278 277 277 276 275 273 270 267 264 263 263 264
149 152 155 157 158 157 155 153 151 149 145 142 139 136 134 131 129 127 125 123 122 121 123 124 126 127 129 130 130 132 134 137 141 146 154 186 207 201 188 203 222 231 224 227 228 225 223 226 242 260 267 261 253 245 242 260 272 278 288 298 304 305 305 303 299 295 293 290 287 284 281 280 279 278 278 278 278 278 278 276 274 272 268 265 263 262
154 156 158 160 160 159 157 154 152 149 146 142 139 135 133 130 127 125 122 120 117 115 114 114 113 114 115 119 123 126 130 134 140 149 163 194 218 212 204 212 226 234 231 238 244 249 247 239 247 259 257 248 247 256 271 287 297 303 309 312 315 320 321 318 312 306 301 296 290 285 282 280 279 278 279 280 280 281 281 280 278 276 272 269 266 262
159 160 161 161 161 160 157 154 151 149 146 143 140 137 134 131 127 123 119 116 112 109 105 103 102 103 104 108 113 119 127 135 147 161 182 207 227 230 226 219 224 233 239 246 254 261 265 259 256 262 274 271 271 279 291 304 315 322 326 327 329 333 337 333 327 319 312 303 294 287 282 279 278 278 279 281 283 284 284 283 281 279 276 273 270 266
162 162 162 161 160 158 156 154 152 150 147 145 142 139 137 133 129 124 119 113 108 101 97 93 91 91 94 99 105 114 124 139 159 180 200 217 232 239 240 238 236 241 249 255 260 266 271 273 272 271 273 281 287 294 303 312 322 330 333 336 336 337 342 338 331 323 315 308 300 294 288 284 281 279 279 281 284 287 288 288 287 286 284 281 278 274
163 163 163 161 159 158 156 155 154 152 150 147 145 143 140 137 132 128 123 116 108 99 91 84 82 84 86 89 96 111 126 147 172 196 212 224 235 242 246 247 248 251 256 260 265 269 274 277 279 280 282 285 290 296 303 312 324 331 334 336 334 332 333 333 328 320 314 309 303 298 293 289 285 281 279 279 281 285 289 291 292 293 292 289 286 282
165 165 164 161 160 158 158 158 157 156 154 152 150 147 144 141 137 132 127 120 111 100 88 81 80 84 91 97 106 123 147 168 188 209 224 235 243 249 252 253 254 257 260 262 265 268 272 275 278 280 283 287 291 296 303 313 323 330 332 332 330 327 324 327 326 321 318 313 308 302 297 292 287 284 281 278 278 280 285 288 291 293 294 293 290 285
168 167 165 163 162 161 161 162 162 162 160 158 156 152 149 146 143 139 133 123 111 98 86 76 73 82 103 120 131 144 164 183 202 218 231 242 249 254 256 259 261 263 265 264 264 266 270 273 274 274 277 281 286 292 300 311 320 328 333 332 332 333 334 333 328 325 324 322 319 313 307 301 295 291 287 283 280 278 280 282 285 287 288 288 287 284
170 168 166 165 165 166 167 167 168 168 167 165 162 158 155 154 153 150 142 128 114 100 89 76 72 92 134 149 153 158 169 187 206 220 234 244 251 256 260 262 265 267 269 268 267 268 271 271 270 269 272 277 283 291 300 310 319 328 333 331 333 337 340 335 333 334 336 337 335 331 325 318 311 304 298 292 286 282 280 279 280 281 282 283 282 280
171 169 167 168 170 171 172 173 173 173 172 170 168 164 162 162 163 161 153 141 130 122 112 91 93 124 145 153 162 171 179 194 211 224 235 244 251 256 260 263 266 268 270 271 271 271 272 272 271 271 273 278 283 291 300 309 318 326 331 331 335 341 346 345 348 352 357 355 352 347 341 334 328 321 314 305 298 292 287 282 278 276 276 277 277 277
174 172 170 171 174 176 177 176 176 176 176 176 174 172 171 171 172 171 167 160 153 148 143 111 114 136 149 162 177 187 187 190 205 231 242 248 253 257 261 263 265 267 269 270 271 272 272 271 270 271 275 281 286 291 298 308 317 325 330 333 348 14 23 23 20 15 9 4 360 355 349 344 339 334 329 324 318 311 301 292 283 276 272 271 273 274
180 176 173 174 176 178 179 179 179 180 180 180 180 179 179 179 180 179 178 176 171 165 156 118 95 127 149 160 169 175 174 167 164 188 236 252 258 261 263 263 265 265 266 266 268 269 269 270 271 273 276 280 284 289 297 306 314 322 333 353 45 70 64 48 33 23 15 8 3 358 352 349 346 343 340 338 335 332 325 312 295 282 274 272 272 272
184 179 175 176 177 179 180 181 182 183 184 184 183 183 184 186 188 188 187 185 182 176 161 125 113 124 132 134 136 136 136 134 121 103 123 234 259 264 264 261 261 262 263 262 262 263 265 268 271 274 277 277 279 284 295 305 308 307 26 93 94 81 61 38 26 18 12 7 2 358 353 350 348 346 343 341 341 343 346 343 324 296 279 273 270 269
186 180 177 177 179 180 182 183 184 186 187 186 185 185 186 189 192 193 193 191 186 177 161 141 133 135 138 140 137 134 130 126 117 95 68 58 61 65 289 261 254 250 249 251 254 257 260 263 266 270 274 277 278 280 287 273 159 145 126 115 97 70 43 24 14 8 4 2 359 355 352 349 345 342 340 339 339 342 350 1 3 340 295 273 264 260
189 183 179 179 181 182 183 184 186 188 189 189 188 186 186 188 190 192 193 192 187 178 164 153 146 145 147 149 149 145 140 136 131 123 98 47 43 54 63 75 115 169 190 219 240 250 253 252 252 257 262 271 275 264 145 131 133 132 122 109 78 42 21 10 4 0 358 357 355 353 350 346 342 338 337 337 336 337 341 354 12 16 333 283 262 255
191 186 183 182 183 184 185 186 188 190 191 191 190 188 186 185 186 187 189 189 184 175 168 161 155 151 151 154 155 153 151 150 153 158 160 66 38 54 68 73 91 123 155 158 111 64 83 112 146 265 294 159 131 126 129 126 124 120 112 89 45 19 8 2 358 354 354 354 353 351 349 346 342 338 336 335 335 334 334 339 354 10 349 308 278 264